TimeADT,TemperatureF,Dew PointF,Humidity,Sea Level PressureIn,VisibilityMPH,Wind Direction,Wind SpeedMPH,Gust SpeedMPH,PrecipitationIn,Events,Conditions,WindDirDegrees,DateUTC
12:00 AM,67,65,91,29.77,,ESE,1.2,,,,,120,2013-06-25 03:00:00
12:00 AM,67.3,64.9,92,29.77,-9999.0,ESE,1.2,-,N/A,,Unknown,120,2013-06-25 03:00:00
1:00 AM,66.0,63.9,93,29.76,-9999.0,SE,1.2,-,N/A,,Unknown,140,2013-06-25 04:00:00
2:00 AM,64.9,63.0,93,29.77,-9999.0,SE,1.2,-,N/A,,Unknown,130,2013-06-25 05:00:00
3:00 AM,66,64,90,29.77,,North,1.2,,,,,0,2013-06-25 06:00:00
3:00 AM,65.7,63.7,93,29.77,-9999.0,North,1.2,-,N/A,,Unknown,360,2013-06-25 06:00:00
4:00 AM,65.5,63.5,93,29.77,-9999.0,Calm,Calm,-,N/A,,Unknown,0,2013-06-25 07:00:00
5:00 AM,63.3,61.7,94,29.77,-9999.0,NNE,1.2,-,N/A,,Unknown,30,2013-06-25 08:00:00
6:00 AM,63,62,93,29.78,,West,2.3,,,,,260,2013-06-25 09:00:00
6:00 AM,63.0,61.5,95,29.78,-9999.0,West,2.3,-,N/A,,Unknown,260,2013-06-25 09:00:00
7:00 AM,65.7,63.7,93,29.80,-9999.0,West,1.2,-,N/A,,Unknown,280,2013-06-25 10:00:00
8:00 AM,71.6,63.3,75,29.80,-9999.0,SW,1.2,-,N/A,,Unknown,230,2013-06-25 11:00:00
9:00 AM,75,64,60,29.80,,WSW,2.3,,,,,250,2013-06-25 12:00:00
9:00 AM,75.4,63.7,67,29.80,-9999.0,WSW,2.3,-,N/A,,Unknown,250,2013-06-25 12:00:00
10:00 AM,78.3,63.7,61,29.78,-9999.0,West,4.6,-,N/A,,Unknown,260,2013-06-25 13:00:00
11:00 AM,79.7,63.7,58,29.80,-9999.0,WNW,4.6,-,N/A,,Unknown,300,2013-06-25 14:00:00
12:00 PM,82,65,47,29.78,,SSW,4.6,,,,,200,2013-06-25 15:00:00
12:00 PM,82.4,64.9,55,29.78,-9999.0,SSW,4.6,-,N/A,,Unknown,200,2013-06-25 15:00:00
1:00 PM,84.7,66.2,54,29.76,-9999.0,SSW,5.8,-,N/A,,Unknown,210,2013-06-25 16:00:00
2:00 PM,87.6,67.3,51,29.75,-9999.0,South,8.1,-,N/A,,Unknown,190,2013-06-25 17:00:00
3:00 PM,88.3,64.8,45,29.73,-9999.0,SW,6.9,-,N/A,,Unknown,230,2013-06-25 18:00:00
4:00 PM,90.1,65.7,44,29.70,-9999.0,WSW,9.2,-,N/A,,Unknown,250,2013-06-25 19:00:00
5:00 PM,82.8,59.4,45,29.67,-9999.0,North,5.8,-,N/A,,Unknown,350,2013-06-25 20:00:00
6:00 PM,72,65,73,29.70,,South,8.1,,,,,180,2013-06-25 21:00:00
6:00 PM,71.6,65.1,80,29.70,-9999.0,South,8.1,-,N/A,,Unknown,180,2013-06-25 21:00:00
7:00 PM,68.9,63.1,82,29.70,-9999.0,South,15.0,23.0,0.34,,Unknown,180,2013-06-25 22:00:00
8:00 PM,68.9,66.6,92,29.70,-9999.0,WNW,1.2,-,0.09,,Unknown,300,2013-06-25 23:00:00
9:00 PM,69,66,87,29.75,,WSW,4.6,,,,,250,2013-06-26 00:00:00
9:00 PM,68.7,66.0,91,29.75,-9999.0,WSW,4.6,-,0.08,,Unknown,250,2013-06-26 00:00:00
10:00 PM,67.6,65.5,93,29.72,-9999.0,WNW,3.5,-,0.07,,Unknown,290,2013-06-26 01:00:00
11:00 PM,67.3,65.7,95,29.69,-9999.0,NW,1.2,-,0.01,,Unknown,310,2013-06-26 02:00:00